Location: Cisewo
(53.3833°N, 14.9000°E)
Time: 12:20:38
(UTC+00:00)

Cosmos 1633 Rocket - Pass Details

Date: 18 April 2021
Orbit: 607 x 624 km, 82.5° (Epoch: 14 May)

Event Time Altitude Azimuth Distance (km) Brightness Sun altitude
Rises 22:28:27 0° 348° (NNW) 2,881 7.9 -25.1°
Reaches altitude 10° 22:30:40 10° 349° (NNW) 1,973 6.7 -25.2°
Enters shadow 22:34:39 74° 345° (NNW) 639 3.1 -25.2°
